W2CJS Weather Reports


time (UTC)temp
F
wind
direction
speed
knots
gust
knots
rain 1hr
in
rain 24hr
in
rain mn
in
humidity
%
barometer
mb
20260505112024 57 231 5.2 10.4 0.00 0.03 0.02 77 1003.7
20260505111003 57 232 4.3 9.6 0.00 0.03 0.02 76 1003.8
20260505102003 55 233 3.5 7.8 0.00 0.03 0.02 78 1003.5
20260505101003 55 232 2.6 4.3 0.00 0.03 0.02 79 1003.8
20260505100024 55 230 3.5 6.1 0.00 0.03 0.02 78 1003.9
20260505095003 55 224 3.5 7.8 0.00 0.03 0.02 80 1003.8
20260505094003 54 231 4.3 7.0 0.00 0.03 0.02 81 1003.8
20260505093004 54 235 2.6 5.2 0.00 0.03 0.02 82 1003.7
20260505092003 54 237 2.6 3.5 0.01 0.03 0.02 82 1003.7
20260505091003 54 235 2.6 3.5 0.02 0.03 0.02 82 1003.8
20260505090003 54 234 3.5 6.1 0.02 0.03 0.02 81 1003.9
20260505085003 54 228 4.3 9.6 0.02 0.03 0.02 80 1004.0
20260505084003 55 231 5.2 10.4 0.02 0.03 0.02 80 1004.2
20260505083003 56 228 6.1 13.0 0.02 0.03 0.02 77 1004.2
20260505082003 57 230 6.1 13.9 0.01 0.02 0.01 70 1004.3
20260505081024 60 231 5.2 13.9 0.00 0.01 0.00 62 1004.2
20260505080003 60 231 6.1 9.6 0.00 0.01 0.00 58 1003.9
20260505075024 60 228 5.2 9.6 0.00 0.01 0.00 58 1003.7
20260505074003 59 234 4.3 8.7 0.00 0.01 0.00 58 1003.8
20260505073003 59 235 4.3 8.7 0.00 0.01 0.00 58 1003.8
20260505072003 59 227 4.3 7.8 0.00 0.01 0.00 58 1003.6
20260505071003 58 231 3.5 6.1 0.00 0.01 0.00 58 1003.7
20260505070024 58 233 3.5 6.1 0.00 0.01 0.00 58 1003.6
20260505065003 58 232 3.5 7.0 0.00 0.02 0.00 58 1003.6
20260505064003 58 234 3.5 7.8 0.00 0.02 0.00 57 1003.7
20260505063003 59 234 4.3 7.8 0.00 0.02 0.00 57 1003.8
20260505062003 58 230 4.3 7.0 0.00 0.02 0.00 57 1003.8
20260505061003 59 231 3.5 6.1 0.00 0.02 0.00 56 1003.9
20260505060004 59 228 4.3 7.8 0.00 0.02 0.00 56 1003.8
20260505055003 59 229 4.3 7.8 0.00 0.02 0.00 55 1003.8
20260505054024 59 232 3.5 7.0 0.00 0.03 0.00 55 1003.8
20260505053003 59 226 4.3 9.6 0.00 0.03 0.00 54 1003.8
20260505052003 59 227 3.5 10.4 0.00 0.03 0.00 55 1004.1
20260505051003 60 230 4.3 8.7 0.00 0.03 0.00 54 1004.1
20260505041003 46 139 0.0 2.6 0.00 0.03 0.00 84 1004.1
20260505040004 46 139 0.9 1.7 0.00 0.04 0.00 84 1004.0
20260505035003 46 139 0.0 2.6 0.00 0.04 0.04 84 1004.1
20260505034003 46 139 0.9 1.7 0.00 0.04 0.04 84 1004.1
20260505033003 46 0 0.0 0.0 0.00 0.05 0.04 83 1004.2
20260505032003 46 0 0.0 0.0 0.00 0.05 0.04 83 1004.3
20260505031003 46 0 0.0 0.0 0.00 0.05 0.04 83 1004.3
20260505030003 47 0 0.0 0.0 0.00 0.05 0.04 82 1004.4
20260505025004 47 219 0.0 1.7 0.00 0.06 0.04 82 1004.4
20260505024003 47 0 0.0 0.0 0.00 0.06 0.04 81 1004.4
20260505023024 48 220 0.9 2.6 0.00 0.06 0.04 81 1004.5
20260505022003 48 0 0.0 0.0 0.00 0.06 0.04 80 1004.6
20260505021003 49 222 0.0 1.7 0.00 0.06 0.04 79 1004.7
20260505020003 50 222 0.0 2.6 0.00 0.06 0.04 78 1004.8
20260505015003 50 0 0.0 0.0 0.00 0.06 0.04 77 1004.9
20260505014003 51 0 0.0 0.0 0.00 0.06 0.04 76 1004.9
20260505013003 51 0 0.0 0.0 0.00 0.06 0.04 75 1004.9
20260505012003 52 0 0.0 0.0 0.00 0.06 0.04 74 1004.8
20260505011003 52 0 0.0 0.0 0.00 0.06 0.04 74 1004.8
20260505010003 53 0 0.0 0.0 0.00 0.06 0.04 75 1004.6
20260505005004 54 0 0.0 0.0 0.00 0.06 0.04 74 1004.5
20260505004003 54 0 0.0 0.0 0.00 0.06 0.04 72 1004.5
20260505003024 55 0 0.0 0.0 0.00 0.06 0.04 71 1004.4
20260505002003 56 0 0.0 0.0 0.00 0.06 0.04 68 1004.6
20260505001003 58 0 0.0 0.0 0.00 0.06 0.04 63 1004.5
20260505000024 60 0 0.0 0.0 0.00 0.06 0.04 59 1004.4
20260504235003 63 228 1.7 4.3 0.00 0.06 0.04 48 1004.3
20260504234003 63 227 2.6 5.2 0.00 0.06 0.04 45 1004.3
20260504233003 63 236 2.6 5.2 0.00 0.06 0.04 46 1004.3
20260504232003 64 230 3.5 8.7 0.00 0.06 0.04 45 1004.2
20260504231003 64 234 3.5 6.1 0.00 0.06 0.04 45 1004.2
20260504230003 65 230 3.5 8.7 0.00 0.06 0.04 44 1004.0
20260504225003 65 228 3.5 7.0 0.00 0.06 0.04 44 1003.9
20260504224003 65 225 3.5 7.0 0.00 0.06 0.04 43 1003.9
20260504223003 65 230 4.3 7.0 0.00 0.06 0.04 43 1003.8
20260504222003 65 228 4.3 7.8 0.00 0.06 0.04 43 1003.9
20260504221024 65 229 1.7 5.2 0.00 0.06 0.04 43 1003.8
20260504220003 64 230 4.3 12.2 0.00 0.06 0.04 43 1003.8
20260504215003 64 226 4.3 10.4 0.00 0.06 0.04 45 1003.9
20260504214024 64 227 4.3 10.4 0.00 0.06 0.04 44 1003.9
20260504213024 65 239 3.5 8.7 0.00 0.06 0.04 44 1004.0
20260504212003 64 223 4.3 13.0 0.00 0.06 0.04 44 1003.8
20260504211003 64 228 5.2 13.0 0.00 0.06 0.04 44 1003.8
20260504210004 65 232 5.2 11.3 0.00 0.06 0.04 44 1003.9
20260504205024 65 224 6.1 11.3 0.00 0.06 0.04 44 1003.9
20260504204003 64 227 7.0 15.6 0.00 0.06 0.04 44 1003.9
20260504203024 65 229 7.8 18.2 0.00 0.06 0.04 43 1003.9
20260504202003 65 230 4.3 13.0 0.00 0.06 0.04 44 1004.0
20260504201003 64 240 6.1 10.4 0.00 0.06 0.04 45 1003.9
20260504200024 64 230 6.1 18.2 0.00 0.06 0.04 45 1004.1
20260504195003 65 225 7.0 14.8 0.00 0.06 0.04 45 1004.0
20260504194003 64 227 7.8 16.5 0.00 0.06 0.04 45 1004.0
20260504193003 65 224 7.0 17.4 0.00 0.06 0.04 45 1004.2
20260504192003 65 227 5.2 13.0 0.00 0.06 0.04 45 1004.2
20260504191003 64 232 5.2 13.9 0.00 0.06 0.04 48 1004.3
20260504190003 63 229 7.0 13.9 0.00 0.06 0.04 48 1004.4
20260504185003 63 229 7.8 17.4 0.00 0.06 0.04 49 1004.6
20260504184003 63 233 6.1 14.8 0.00 0.06 0.04 49 1004.5
20260504183003 62 231 6.1 12.2 0.00 0.06 0.04 52 1004.6
20260504182003 62 227 7.0 15.6 0.00 0.06 0.04 50 1004.7
20260504181003 63 228 6.1 12.2 0.00 0.06 0.04 49 1004.7
20260504180003 62 237 6.1 17.4 0.00 0.06 0.04 50 1004.8
20260504175003 62 240 4.3 12.2 0.00 0.06 0.04 52 1004.7
20260504174024 61 232 4.3 10.4 0.00 0.06 0.04 54 1004.7
20260504173003 61 227 4.3 11.3 0.00 0.06 0.04 52 1004.8
20260504172003 61 232 3.5 10.4 0.00 0.06 0.04 52 1004.7
20260504171024 61 226 5.2 13.0 0.00 0.06 0.04 54 1004.6
20260504151003 50 225 3.5 7.8 0.01 0.06 0.04 72 1005.8
20260504141024 50 227 4.3 9.6 0.00 0.05 0.03 66 1005.8